www.pogodaiklimat.ru

Погода и климат >> Архив погоды >> Россия >> Красноярский край >> Минусинск


АРХИВ ПОГОДЫ в Минусинске

Время (UTC), дата Ветер
(напр.,м/с)
 
Видим.   Явления Облачность Т
(С)
Тd
(С)
f
(%)
Тe
(С)
Тes
(С)
Комфортность P
(гПа)
Po
(гПа)
Тmin
(С)
Tmax
(С)
R
(мм)
R24
(мм)
S
(см)
09 13.08 С 1 50 км 6/4 1000 м
[Cu med, cong Ci fib]
+21.9 +8.5 42 +23 +28 комфорт 1009.4 980.3
12 13.08 С 2 50 км 6/3 1000 м
[Cu med, cong Ci fib]
+20.7 +8.6 46 +23 +23 комфорт 1009.7 980.5 +22.2
15 13.08 штиль 0 н/о ясно +12.7 +9.8 83 +12 +12 1011.2 981.1
18 13.08 штиль 0 н/о 8/0
[Ci fib]
+11.2 +9.6 90 +11 +11 1011.3 981.1
21 13.08 штиль 0 н/о 3/0
[Ci fib]
+8.4 +7.3 93 +7 +7 1011.5 981.0
00 14.08 штиль 0 50 км ясно +8.5 +7.4 93 +8 +9 1011.9 981.4 +6.7
03 14.08 С 2 50 км ясно +16.7 +8.8 60 +17 +25 1011.5 981.8
06 14.08 В 1 50 км 4/0
[Ci fib]
+21.1 +9.3 47 +22 +36 комфорт 1011.1 981.8
09 14.08 В 1 50 км 4/4 1000 м
[Cu hum]
+23.5 +7.3 35 +24 +29 комфорт 1010.5 981.5
12 14.08 В 1 50 км 6/0
[Ci fib]
+21.9 +10.4 48 +24 +24 комфорт 1010.4 981.3 +23.8
15 14.08 штиль 0 н/о 4/0
[Ci fib]
+13.4 +10.5 83 +13 +13 1012.2 982.2
18 14.08 штиль 0 н/о 8/0
[Ci fib]
+13.2 +11.7 91 +13 +13 1012.6 982.6
21 14.08 штиль 0 н/о 10/6 1000 м
[Sc Ci fib]
+13.8 +12.3 91 +13 +13 1012.2 982.2
00 15.08 штиль 0 50 км 9/9 1000 м
[Sc]
+14.2 +12.7 91 +14 +14 1012.0 982.1 +12.5
03 15.08 В 1 50 км ясно +19.9 +13.1 65 +23 +32 комфорт 1010.5 981.3
06 15.08 ЮВ 1 50 км 9/0
[Ac trans Ci fib]
+24.8 +14.8 54 +28 +38 жарко 1009.3 980.6
09 15.08 СВ 2 50 км 9/3 1000 м
[Cu hum Ci fib]
+26.3 +15.1 50 +29 +33 жарко 1007.7 979.1
12 15.08 В 2 50 км 8/0
[Ci fib]
+25.7 +14.9 51 +28 +29 жарко 1007.3 978.7 +26.6
15 15.08 С 1 н/о 6/0
[Ci fib]
+18.5 +14.5 78 +20 +20 1008.3 978.9
18 15.08 штиль 0 н/о 8/0
[Ci fib]
+14.6 +11.8 83 +14 +14 1009.1 979.3
21 15.08 штиль 0 н/о ясно +12.0 +10.9 93 +11 +11 1008.4 978.3
00 16.08 С 1 50 км 10/0
[Ac As Ci fib]
+13.0 +12.4 96 +13 +14 1007.2 977.3 +11.5
03 16.08 С 3 50 км 10/0
[Ac As]
+18.9 +12.5 66 +20 +22 1005.8 976.6
06 16.08 ЮЗ 1 50 км 10/0
[Ac As]
+20.7 +13.4 63 +24 +29 комфорт 1005.7 976.6
09 16.08 ЮЗ 4 50 км 10/10 600 м
[Cb cap]
+20.2 +13.8 67 +22 +22 комфорт 1006.1 977.0
12 16.08 ЮЗ 3 10 км слаб. ливневой дождь 10/10 600 м
[Cb cap]
+16.8 +15.4 91 +17 +17 1007.3 977.9 +21.4 2
15 16.08 З 3 н/о ливневой дождь 10/10 600 м
[Cb cap]
+15.5 +14.6 94 +15 +15 1008.7 979.0
18 16.08 З 1 н/о слаб. ливневой дождь 10/10 600 м
[Cb cap]
+15.2 +14.3 94 +16 +16 1009.6 979.9
21 16.08 штиль 0 н/о слаб. ливневой дождь 10/10 600 м
[Cb cap]
+14.8 +13.9 94 +14 +14 1010.0 980.2
00 17.08 штиль 0 50 км {ливн. осадки} 10/10 600 м
[Cb cap]
+14.9 +14.2 96 +15 +15 1010.8 981.1 +14.1 13
03 17.08 З 1 4000 м слаб. ливневой дождь 10/10 600 м
[Cb cap]
+15.2 +14.5 96 +16 +16 1012.0 982.2
06 17.08 Ю 1 10 км {ливн. осадки} 10/8 600 м
[Cb cap Ac As]
+17.1 +15.2 89 +18 +19 1012.2 982.6
09 17.08 Ю 2 50 км 10/6 600 м
[Cb cap Ac As]
+19.7 +13.4 67 +22 +23 комфорт 1012.1 982.7
12 17.08 штиль 0 50 км 10/4 1000 м
[Sc Ac trans Ci fib]
+19.8 +14.5 71 +22 +22 комфорт 1012.0 982.7 +19.9 8
15 17.08 штиль 0 н/о 10/4 1000 м
[Sc Ac trans Ci fib]
+15.3 +13.9 91 +15 +15 1013.5 983.7
18 17.08 штиль 0 н/о туман 10/6 1000 м
[Sc Ci fib]
+12.7 +12.1 96 +12 +12 1013.4 983.3
21 17.08 штиль 0 н/о туман 10/6 1000 м
[Sc Ci fib]
+12.4 +12.0 97 +12 +12 1012.8 982.7
00 18.08 штиль 0 500 м туман 6/0
[Ci fib]
+10.6 +10.2 97 +10 +11 1013.1 982.7 +9.9
03 18.08 СЗ 1 10 км {туман} 10/8 1000 м
[Cu Sc Ci fib]
+16.9 +13.7 81 +18 +19 1013.0 983.4
06 18.08 СВ 2 50 км {туман} 9/8 1000 м
[Cu med, cong Ci fib]
+20.5 +14.5 68 +24 +26 комфорт 1011.1 981.8
09 18.08 СВ 2 50 км 8/4 1000 м
[Cu med, cong Ci fib]
+22.6 +13.7 57 +26 +29 жарко 1009.9 980.9
12 18.08 СЗ 2 50 км 8/4 1000 м
[Cu Sc Ac trans Ci fib]
+20.4 +14.4 68 +24 +24 комфорт 1010.3 981.1 +23.1
15 18.08 штиль 0 н/о 8/3 1000 м
[Sc Ac trans]
+15.1 +11.2 78 +15 +15 1012.5 982.7
18 18.08 штиль 0 н/о 4/3 1000 м
[Sc Ac trans]
+11.9 +10.7 92 +11 +11 1014.4 984.1
21 18.08 штиль 0 н/о 3/0
[Ac trans]
+9.2 +8.6 96 +8 +8 1015.3 984.6
00 19.08 штиль 0 1000 м дымка ясно +9.1 +8.5 96 +8 +9 1017.2 986.5 +7.6
03 19.08 З 2 50 км 3/0
[Ci fib]
+17.6 +12.4 72 +18 +25 1016.7 987.0
06 19.08 З 2 50 км 4/3 1000 м
[Cu hum Ci fib]
+21.5 +11.2 52 +23 +32 комфорт 1016.6 987.3
09 19.08 ЮЗ 2 50 км 9/3 1000 м
[Cu hum Ci fib]
+23.0 +10.5 45 +25 +29 комфорт 1015.8 986.7
12 19.08 штиль 0 50 км 10/3 1000 м
[Sc Ac As]
+21.7 +15.3 67 +25 +25 комфорт 1015.8 986.5 +23.5
15 19.08 штиль 0 н/о 10/6 1000 м
[Sc Ac As]
+16.6 +13.4 81 +16 +16 1016.4 986.6
18 19.08 В 1 н/о 10/8 1000 м
[Sc Ac As]
+14.6 +12.4 87 +15 +15 1016.6 986.6
21 19.08 штиль 0 н/о 10/6 1000 м
[Sc Ac As]
+13.6 +12.1 91 +13 +13 1016.0 985.9
00 20.08 штиль 0 20 км 10/8 1000 м
[Sc Ac As]
+14.7 +12.9 89 +14 +14 1015.7 985.7 +13.5
03 20.08 Ю 1 50 км {ливн. осадки} 10/6 1000 м
[Sc Ac trans Ci fib]
+17.1 +12.2 73 +18 +20 1015.0 985.3
06 20.08 В 1 50 км {ливн. осадки} 10/0
[Ci fib]
+22.6 +12.7 54 +25 +37 комфорт 1012.6 983.5

 

Местоположение метеостанции Минусинск (Красноярский край, Россия): широта 53.72 долгота 91.70 высота над уровнем моря 255 м.

В архиве по умолчанию представлена погода в Минусинске за последнюю неделю. Архивные данные за месяц целиком и за предыдущие месяцы, начиная с января 2011 года, Вы можете получить, выбрав интересующий диапазон дат из раскрывающегося списка и нажав кнопку "Ввод!".


*Определитесь, кто Вы:
робот инопланетянин человек

Внимание! Время в таблицах - всемирное. Для получения местного времени необходимо прибавить поправку, которая равна 7 ч.

Смотрите также архив погоды в соседних городах и на ближайших метеорологических станциях:

Погода в Хакасской (Хакасия, Россия) (26 км)
Погода в Теси (Красноярский край, Россия) (37 км)
Погода в Лебяжьем (Красноярский край, Россия) (54 км)
Погода в Ермаковском (Красноярский край, Россия) (67 км)
Погода в Курагино (Красноярский край, Россия) (67 км)
Погода в Саяногорске (Хакасия, Россия) (71 км)
Погода в Каратузском (Красноярский край, Россия) (77 км)
Погода в Идринском (Красноярский край, Россия) (78 км)
Погода в Уйбате (Хакасия, Россия) (88 км)
Погода в Бее (Хакасия, Россия) (91 км)

Пояснения к столбцам:

Ветер - указаны скорость ветра в м/с - средняя за 10 мин, порывы в срок и между сроками (в фигурных скобках) и направление, откуда дует ветер: С - северный, СВ - северо-восточный, В - восточный, ЮВ - юго-восточный, Ю - южный, ЮЗ - юго-западный, З - западный, СЗ - северо-западный.
Видимость - горизонтальная дальность видимости в метрах или километрах. При видимости от 1 до 10 км при отсутствии осадков обычно наблюдается дымка, при ухудшении видимости до 1 км и менее - туман. В сухую погоду видимость может ухудшаться дымом, пылью или мглою.
Явления - указаны атмосферные явления, наблюдавшиеся в срок или в последний час перед сроком; фигурными скобками обозначены явления, наблюдавшиеся между сроками (за 1-3 часа до срока); квадратными скобками обозначены град или гололедные отложения с указанием их диаметра в мм.
Облачность - указаны через наклонную черту общая и нижняя облачность в баллах и высота нижней границы облаков в метрах; квадратными скобками обозначены формы облаков: Ci - перистые, Cs - перисто-слоистые, Cc - перисто-кучевые, Ac - высококучевые, As - высокослоистые, Sc - слоисто-кучевые, Ns - слоисто-дождевые, Cu - кучевые, Cb - кучево-дождевые. Подробнее классификацию облаков см. в Атласе облаков (PDF).
T - Температура воздуха - температура, измеренная на высоте 2 м над землей.
Td - Температура точки росы - температура, при понижении до которой содержащийся в воздухе водяной пар достигнет насыщения.
f - Относительная влажность воздуха - влажноcть воздуха, измеренная на высоте 2 м над землей.
Te - Эффективная температура - температура, которую ощущает одетый по сезону человек в тени. Характеристика душности погоды. При расчете учитывается влияние влажности воздуха и скорости ветра на теплоощущения человека.
Tes - Эффективная температура на солнце - температура, которую ощущает человек, с поправкой на солнечный нагрев. Характеристика знойности погоды. Зависит от высоты солнца над горизонтом, облачности и скорости ветра. Ночью, в пасмурную погоду, а также при ветре 12 м/с и более поправка равна нулю.
P - Атмосферное давление - приведенное к уровню моря атмосферное давление.
Po - Атмосферное давление - измеренное на уровне метеостанции атмосферное давление.
Tmin - Минимальная температура - минимум температуры воздуха на высоте 2 м над землей.
Tmax - Максимальная температура - максимум температуры воздуха на высоте 2 м над землей.
R - Количество осадков - Количество выпавших осадков за период времени, мм. При наведении курсора мыши на число - период времени, за который выпало указанное количество осадков.
R24 - Количество осадков - Количество выпавших осадков за 24 часа, мм.
S - Снежный покров - Высота снежного покрова, см. При наведении курсора мыши на число - состояние снежного покрова и степень покрытия местности в баллах.